Simultaneous Nadir Overpasses (SNOs) Predictions

Prediction of SNOs between GOES-17 and AQUA Satellite Orbit:

Table of predicted SNOs for the next 14.0 days since TLE Epoch: 8/13/2022
Index Date Time (GOES-17) GOES-17 Lat,Lon AQUA Lat,Lon Distance(km) Time Diff (sec)
1 08/13/2022 22:48:35 -0.06,-137.31 0.05,-136.87 50.72 80
2 08/15/2022 22:35:55 -0.06,-137.31 0.68,-133.78 401.28 80
3 08/16/2022 10:57:02 0.06,-137.32 0.41,-138.90 180.28 80
4 08/18/2022 10:41:43 0.06,-137.32 -0.28,-135.83 169.78 80
5 08/18/2022 23:03:00 -0.06,-137.31 -0.82,-140.99 418.08 80
6 08/20/2022 22:50:20 -0.05,-137.30 -0.16,-137.91 68.95 80
7 08/22/2022 22:40:20 -0.04,-137.28 0.51,-134.83 279.63 80
8 08/23/2022 10:58:48 0.04,-137.29 0.58,-139.95 302.53 80
9 08/25/2022 10:48:47 0.03,-137.26 -0.03,-136.86 45.39 80
